Regional Weather Roundup
Issued by NWS Green Bay, WI

Home | Current Version | Previous Version | Graphics & Text | Print | Product List | Glossary Off
Versions: 1 2 3 4 5 6 7 8 9 10 11 12 13 14 15 16 17 18 19 20 21 22 23 24 25 26 27 28 29 30 31 32 33 34 35 36 37 38 39 40 41 42 43 44 45 46 47 48 49 50

000
ASUS43 KGRB 212311
RWRGRB

NORTH-CENTRAL AND NORTHEAST WISCONSIN REGIONAL WEATHER ROUNDUP
NATIONAL WEATHER SERVICE GREEN BAY WI
600 PM CDT FRI JUL 21 2017

WIZ005-009-010>012-018-019-220000-
NORTH CENTRAL WISCONSIN

CITY           SKY/WX    TMP DP  RH WIND       PRES   REMARKS
IRONWOOD       FAIR      83  65  54 SE6       29.86F
MANITOWISH WTR FAIR      82  63  53 S9        29.91S
ARBOR VITAE    FAIR      82  65  55 S7        29.91S
EAGLE RIVER    FAIR      79  60  52 S5        29.92S
LAND O LAKES   FAIR      83  59  43 S7        29.93S
RHINELANDER    CLOUDY    79  66  64 S8        29.94S
PHILLIPS       RAIN      77  69  78 SW7       29.89F
ANTIGO         FAIR      76  68  76 S9        29.94S
TOMAHAWK         N/A     78  67  68 CALM      29.92F
MERRILL        FAIR      77  70  77 SW6       29.93S
$$

WIZ013-073-220000-
NORTHEAST WISCONSIN

CITY           SKY/WX    TMP DP  RH WIND       PRES   REMARKS
IRON MOUNTAIN  FAIR      83  64  52 SE7       29.90F
MARINETTE      FAIR      81  68  64 SW5       29.91F
OCONTO         CLOUDY    79  69  72 CALM      29.90F
$$

WIZ017-030-035>037-045-220000-
CENTRAL WISCONSIN

CITY           SKY/WX    TMP DP  RH WIND       PRES   REMARKS
MEDFORD        FAIR      75  66  73 S8        29.92R
WAUSAU         PTSUNNY   78  69  73 S8        29.90F
MOSINEE        PTSUNNY   75  72  88 S8        29.92F
MARSHFIELD     CLOUDY    75  67  76 S7        29.91F
WISC RAPIDS    CLOUDY    74  72  93 CALM      29.92F
STEVENS POINT  CLOUDY    73  71  96 S3        29.93S
WAUPACA        PTSUNNY   75  69  79 SE5       29.91F
SHAWANO        PTSUNNY   80  68  67 SW3       29.91F
CLINTONVILLE   PTSUNNY   77  66  69 S9        29.91S
WAUTOMA        LGT RAIN  73  71  93 SE7       29.92S
$$

WIZ038-039-048-051-220000-
FOX VALLEY

CITY           SKY/WX    TMP DP  RH WIND       PRES   REMARKS
NWS GREEN BAY  LGT RAIN  77  70  79 SW6       29.92S
APPLETON       CLOUDY    73  63  68 VRB5      29.92F
OSHKOSH        LGT RAIN  73  66  78 S5        29.92F
FOND DU LAC    LGT RAIN  73  64  73 S9        29.93F
$$

WIZ022-050-052-220000-
EAST CENTRAL WISCONSIN

CITY           SKY/WX    TMP DP  RH WIND       PRES   REMARKS
EPHRAIM        FAIR      80  67  64 S6        29.91S
WASHINGTON ISL FAIR      76  67  72 S3        29.91S
STURGEON BAY     N/A     78  68  71 S6        29.91S
MANITOWOC      LGT RAIN  77  69  76 CALM      29.94R
SHEBOYGAN      LGT RAIN  75  74  96 S6        29.93F
$$

LMZ563-521-522-541>543-220000-
LAKESHORE

STATION/POSITION TIME  TEMP    WIND        PRES    VSBY  WAVE
                       AIR SEA DIR/SP/G                  HT/PER
                 (UTC) (F)     (DEG/KT/KT) (MB)    (MI)  (FT/S)
SHEBOYGAN LKSHOR 2300   74     170/  6/  6 1013.0S
KEWAUNEE LKSHORE 2242   72     190/  9/ 11 1012.7S
NORTHPORT PIER   2240   76     150/  6/  7 1012.5S
N MID LAKE BUOY  2250   70 67  150/  6/  6 1013.7F         1
S GREEN BAY BUOY 2300   78 75  210/  4/  4 1012.7
CHAMBERS ISLAND  2240   82     180/  3/  7 1011.9F
MENOMINEE LKSHOR 2242   80     150/  5/  6 1012.3F
$$




USA.gov is the U.S. government's official web portal to all federal, state and local government web resources and services.